RANA Weather Reports


time (UTC)temp
C
wind
direction
speed
KPH
gust
KPH
rain 1hr
cm
rain 24hr
cm
rain mn
cm
humidity
%
barometer
mb
20260502130511 21 91 6.4 11.3 0.00 0.00 0.00 30
20260502123510 21 97 11.3 14.5 0.00 0.00 0.00 31
20260502123011 21 108 11.3 14.5 0.00 0.00 0.00 31
20260502122510 22 92 6.4 11.3 0.00 0.00 0.00 31
20260502122013 21 95 3.2 6.4 0.00 0.00 0.00 32
20260502121511 21 81 6.4 14.5 0.00 0.00 0.00 32
20260502121011 20 89 6.4 11.3 0.00 0.00 0.00 34
20260502120511 20 104 17.7 20.9 0.00 0.00 0.00 33
20260502115510 21 111 11.3 14.5 0.00 0.00 0.00 32
20260502115011 21 138 0.0 3.2 0.00 0.00 0.00 33
20260502114511 20 91 14.5 17.7 0.00 0.00 0.00 34
20260502114010 20 76 11.3 14.5 0.00 0.00 0.00 34
20260502113510 21 97 14.5 17.7 0.00 0.00 0.00 33
20260502113011 20 106 11.3 14.5 0.00 0.00 0.00 34
20260502112510 20 124 14.5 17.7 0.00 0.00 0.00 34
20260502112012 20 71 0.0 3.2 0.00 0.00 0.00 35
20260502111511 20 44 6.4 11.3 0.00 0.00 0.00 34
20260502111010 20 102 11.3 14.5 0.00 0.00 0.00 33
20260502110511 20 128 0.0 3.2 0.00 0.00 0.00 35
20260502110011 18 85 6.4 11.3 0.00 0.00 0.00 36
20260502105510 20 82 11.3 14.5 0.00 0.00 0.00 35
20260502105010 20 85 14.5 14.5 0.00 0.00 0.00 35
20260502104510 20 97 11.3 14.5 0.00 0.00 0.00 36
20260502104010 18 150 3.2 11.3 0.00 0.00 0.00 37
20260502103510 18 113 6.4 11.3 0.00 0.00 0.00 37
20260502103011 18 111 11.3 20.9 0.00 0.00 0.00 37
20260502102511 18 114 6.4 6.4 0.00 0.00 0.00 38
20260502102013 18 92 11.3 14.5 0.00 0.00 0.00 38
20260502101511 18 74 11.3 14.5 0.00 0.00 0.00 37
20260502101010 18 117 14.5 17.7 0.00 0.00 0.00 37
20260502100510 20 82 6.4 14.5 0.00 0.00 0.00 37
20260502091510 17 107 14.5 14.5 0.00 0.00 0.00 42
20260502091011 17 116 11.3 14.5 0.00 0.00 0.00 42
20260502090510 17 111 6.4 17.7 0.00 0.00 0.00 44
20260502071510 13 95 11.3 11.3 0.00 0.00 0.00 46
20260502071010 13 85 6.4 11.3 0.00 0.00 0.00 47
20260502070510 13 125 6.4 11.3 0.00 0.00 0.00 47
20260502070010 13 104 6.4 11.3 0.00 0.00 0.00 47
20260502065511 13 118 6.4 6.4 0.00 0.00 0.00 48
20260502065010 13 109 3.2 6.4 0.00 0.00 0.00 48
20260502064510 13 97 6.4 6.4 0.00 0.00 0.00 46
20260502064010 12 96 6.4 6.4 0.00 0.00 0.00 46
20260502063511 13 98 6.4 11.3 0.00 0.00 0.00 47
20260502063010 12 93 6.4 6.4 0.00 0.00 0.00 46
20260502062510 12 106 6.4 6.4 0.00 0.00 0.00 47
20260502062014 12 115 6.4 6.4 0.00 0.00 0.00 46
20260502061510 12 105 3.2 6.4 0.00 0.00 0.00 46
20260502061010 12 103 6.4 6.4 0.00 0.00 0.00 46
20260502060511 12 100 3.2 6.4 0.00 0.00 0.00 46
20260502060010 12 96 3.2 3.2 0.00 0.00 0.00 45
20260502055510 12 104 6.4 6.4 0.00 0.00 0.00 44
20260502055011 12 111 6.4 6.4 0.00 0.00 0.00 43
20260502054511 12 100 6.4 11.3 0.00 0.00 0.00 43
20260502054010 12 95 6.4 6.4 0.00 0.00 0.00 43
20260502053511 13 90 6.4 6.4 0.00 0.00 0.00 43
20260502053010 13 101 3.2 6.4 0.00 0.00 0.00 43
20260502052510 13 94 3.2 6.4 0.00 0.00 0.00 42
20260502052014 15 96 3.2 3.2 0.00 0.00 0.00 42
20260502051509 13 96 0.0 3.2 0.00 0.00 0.00 42
20260502051010 15 247 3.2 3.2 0.00 0.00 0.00 41
20260502050511 15 247 0.0 0.0 0.00 0.00 0.00 41
20260502050011 15 248 0.0 3.2 0.00 0.00 0.00 41
20260502044510 15 248 0.0 0.0 0.00 0.00 0.00 41
20260502044016 15 248 0.0 3.2 0.00 0.00 0.00 41
20260502042014 15 248 0.0 0.0 0.00 0.00 0.00 41
20260502041510 15 248 0.0 0.0 0.00 0.00 0.00 42
20260502040510 13 248 0.0 0.0 0.00 0.00 0.00 43
20260502035510 12 248 0.0 0.0 0.00 0.00 0.00 44
20260502031511 12 247 0.0 0.0 0.00 0.00 0.00 44
20260502031011 12 247 3.2 3.2 0.00 0.00 0.00 44
20260502030510 12 247 0.0 0.0 0.00 0.00 0.00 43
20260502025511 12 247 0.0 0.0 0.00 0.00 0.00 44
20260502023510 12 247 0.0 0.0 0.00 0.00 0.00 43
20260502023010 12 247 0.0 0.0 0.00 0.00 0.00 44
20260502022510 12 247 0.0 0.0 0.00 0.00 0.00 43
20260502022012 12 247 0.0 3.2 0.00 0.00 0.00 43
20260502021511 12 247 0.0 0.0 0.00 0.00 0.00 43
20260502020504 12 247 0.0 3.2 0.00 0.00 0.00 43
20260502015510 12 247 3.2 3.2 0.00 0.00 0.00 43
20260502015010 12 247 3.2 6.4 0.00 0.00 0.00 43
20260502014004 12 247 6.4 6.4 0.00 0.00 0.00 43
20260502012510 12 247 3.2 3.2 0.00 0.00 0.00 43
20260502012013 12 209 3.2 3.2 0.00 0.00 0.00 43
20260502011510 12 209 0.0 0.0 0.00 0.00 0.00 43
20260502010510 12 209 0.0 3.2 0.00 0.00 0.00 42
20260502010011 12 209 3.2 3.2 0.00 0.00 0.00 42
20260502005510 12 209 0.0 0.0 0.00 0.00 0.00 42
20260502005011 12 209 0.0 3.2 0.00 0.00 0.00 41
20260502004511 13 209 0.0 3.2 0.00 0.00 0.00 40
20260502004011 13 209 3.2 3.2 0.00 0.00 0.00 41
20260502003511 12 214 3.2 3.2 0.00 0.00 0.00 41
20260502003011 12 204 3.2 3.2 0.00 0.00 0.00 42
20260502002510 12 234 6.4 6.4 0.00 0.00 0.00 41
20260502002012 13 212 6.4 6.4 0.00 0.00 0.00 40
20260502001011 13 140 3.2 3.2 0.00 0.00 0.00 39
20260502000510 13 133 3.2 3.2 0.00 0.00 0.00 39
20260502000011 13 196 3.2 3.2 0.00 0.00 0.00 39
20260501235510 13 124 0.0 3.2 0.00 0.00 0.00 38
20260501235011 13 124 3.2 3.2 0.00 0.00 0.00 38
20260501234510 13 124 0.0 0.0 0.00 0.00 0.00 38
20260501234010 15 124 3.2 3.2 0.00 0.00 0.00 38
20260501233510 13 133 3.2 3.2 0.00 0.00 0.00 38
20260501233010 15 113 0.0 3.2 0.00 0.00 0.00 38
20260501232510 15 123 3.2 3.2 0.00 0.00 0.00 38
20260501232013 15 115 6.4 6.4 0.00 0.00 0.00 38
20260501231510 15 115 0.0 3.2 0.00 0.00 0.00 37
20260501231011 15 115 3.2 6.4 0.00 0.00 0.00 37
20260501230510 15 110 6.4 6.4 0.00 0.00 0.00 37
20260501230010 15 103 3.2 3.2 0.00 0.00 0.00 37
20260501225510 15 103 3.2 6.4 0.00 0.00 0.00 37
20260501225011 13 103 0.0 3.2 0.00 0.00 0.00 37
20260501224510 15 103 0.0 0.0 0.00 0.00 0.00 37
20260501224010 15 103 3.2 3.2 0.00 0.00 0.00 36
20260501223510 15 102 3.2 6.4 0.00 0.00 0.00 36
20260501223011 15 103 0.0 3.2 0.00 0.00 0.00 36
20260501222510 16 93 11.3 11.3 0.00 0.00 0.00 36
20260501222011 15 95 3.2 6.4 0.00 0.00 0.00 36
20260501221511 16 86 3.2 3.2 0.00 0.00 0.00 36
20260501221011 16 78 3.2 3.2 0.00 0.00 0.00 36
20260501220515 16 79 6.4 6.4 0.00 0.00 0.00 35
20260501220010 16 86 6.4 6.4 0.00 0.00 0.00 36
20260501215511 16 90 3.2 6.4 0.00 0.00 0.00 35
20260501215011 16 86 6.4 11.3 0.00 0.00 0.00 35
20260501214509 16 79 6.4 11.3 0.00 0.00 0.00 35
20260501214010 16 79 6.4 6.4 0.00 0.00 0.00 36
20260501213510 16 82 11.3 11.3 0.00 0.00 0.00 36
20260501213009 16 83 11.3 11.3 0.00 0.00 0.00 36
20260501212511 16 77 6.4 11.3 0.00 0.00 0.00 36
20260501212013 16 76 6.4 6.4 0.00 0.00 0.00 36
20260501211510 16 85 6.4 6.4 0.00 0.00 0.00 36
20260501211010 16 76 11.3 11.3 0.00 0.00 0.00 36
20260501210511 16 92 6.4 6.4 0.00 0.00 0.00 36
20260501210011 16 89 6.4 6.4 0.00 0.00 0.00 36
20260501205510 16 84 11.3 11.3 0.00 0.00 0.00 36
20260501205003 16 100 11.3 11.3 0.00 0.00 0.00 36
20260501204511 16 68 11.3 14.5 0.00 0.00 0.00 37
20260501204009 15 84 11.3 14.5 0.00 0.00 0.00 37
20260501203504 15 81 6.4 11.3 0.00 0.00 0.00 37
20260501203010 15 72 6.4 6.4 0.00 0.00 0.00 37
20260501202515 15 64 6.4 11.3 0.00 0.00 0.00 37
20260501202013 16 65 11.3 14.5 0.00 0.00 0.00 37
20260501201511 15 80 11.3 11.3 0.00 0.00 0.00 37
20260501201011 15 86 6.4 6.4 0.00 0.00 0.00 36
20260501200510 16 77 11.3 11.3 0.00 0.00 0.00 36
20260501200011 16 56 11.3 14.5 0.00 0.00 0.00 35
20260501195510 16 34 14.5 17.7 0.00 0.00 0.00 35
20260501195011 16 32 14.5 17.7 0.00 0.00 0.00 35
20260501194510 16 33 14.5 17.7 0.00 0.00 0.00 35
20260501194011 16 36 14.5 14.5 0.00 0.00 0.00 35
20260501193510 16 29 14.5 14.5 0.00 0.00 0.00 35
20260501193010 16 22 11.3 11.3 0.00 0.00 0.00 35
20260501192510 16 16 14.5 14.5 0.00 0.00 0.00 36
20260501192013 16 13 11.3 11.3 0.00 0.00 0.00 36
20260501191510 16 20 6.4 6.4 0.00 0.00 0.00 36
20260501191011 16 13 6.4 11.3 0.00 0.00 0.00 36
20260501190511 17 20 6.4 6.4 0.00 0.00 0.00 36
20260501190011 17 30 11.3 11.3 0.00 0.00 0.00 35
20260501185510 17 5 6.4 11.3 0.00 0.00 0.00 36
20260501185010 17 31 11.3 11.3 0.00 0.00 0.00 35
20260501184510 17 3 6.4 11.3 0.00 0.00 0.00 36
20260501184010 17 356 11.3 11.3 0.00 0.00 0.00 36
20260501183511 17 283 0.0 3.2 0.00 0.00 0.00 35
20260501183011 17 269 3.2 6.4 0.00 0.00 0.00 35
20260501182510 17 273 3.2 3.2 0.00 0.00 0.00 35
20260501182012 17 273 0.0 0.0 0.00 0.00 0.00 35
20260501181511 17 273 3.2 3.2 0.00 0.00 0.00 35
20260501175510 17 273 3.2 3.2 0.00 0.00 0.00 34
20260501175011 17 273 0.0 3.2 0.00 0.00 0.00 34
20260501174510 17 273 3.2 3.2 0.00 0.00 0.00 34
20260501174011 18 274 3.2 3.2 0.00 0.00 0.00 34
20260501173511 18 282 3.2 6.4 0.00 0.00 0.00 34
20260501173011 18 269 3.2 3.2 0.00 0.00 0.00 33
20260501172510 18 284 3.2 3.2 0.00 0.00 0.00 32
20260501172012 20 284 3.2 3.2 0.00 0.00 0.00 31
20260501171511 20 251 0.0 0.0 0.00 0.00 0.00 32
20260501171010 20 302 3.2 3.2 0.00 0.00 0.00 32
20260501170011 21 281 0.0 3.2 0.00 0.00 0.00 31
20260501165510 21 198 3.2 6.4 0.00 0.00 0.00 31
20260501165010 20 186 0.0 3.2 0.00 0.00 0.00 31
20260501164511 20 185 3.2 6.4 0.00 0.00 0.00 31
20260501164010 20 205 3.2 3.2 0.00 0.00 0.00 32
20260501163510 18 190 3.2 6.4 0.00 0.00 0.00 32
20260501163011 20 184 6.4 6.4 0.00 0.00 0.00 32
20260501162510 21 262 6.4 11.3 0.00 0.00 0.00 31
20260501162013 21 236 0.0 3.2 0.00 0.00 0.00 32
20260501161510 21 234 3.2 6.4 0.00 0.00 0.00 32
20260501161010 20 218 3.2 11.3 0.00 0.00 0.00 31
20260501160511 20 177 3.2 3.2 0.00 0.00 0.00 31
20260501160011 20 170 0.0 3.2 0.00 0.00 0.00 32
20260501155511 20 163 6.4 11.3 0.00 0.00 0.00 31
20260501155011 21 23 3.2 6.4 0.00 0.00 0.00 31
20260501154510 20 352 0.0 6.4 0.00 0.00 0.00 32
20260501154010 20 88 3.2 3.2 0.00 0.00 0.00 31
20260501153510 18 102 3.2 6.4 0.00 0.00 0.00 32
20260501153010 20 105 3.2 6.4 0.00 0.00 0.00 31
20260501152511 20 137 3.2 6.4 0.00 0.00 0.00 31
20260501152016 20 42 0.0 0.0 0.00 0.00 0.00 31
20260501151510 21 190 0.0 0.0 0.00 0.00 0.00 30
20260501151011 21 189 0.0 0.0 0.00 0.00 0.00 31
20260501150511 20 203 0.0 3.2 0.00 0.00 0.00 32
20260501150010 20 156 3.2 3.2 0.00 0.00 0.00 32
20260501145509 18 132 6.4 11.3 0.00 0.00 0.00 32
20260501145011 20 105 6.4 11.3 0.00 0.00 0.00 31
20260501144510 18 126 6.4 6.4 0.00 0.00 0.00 32
20260501144010 20 133 3.2 6.4 0.00 0.00 0.00 32
20260501143511 20 201 3.2 3.2 0.00 0.00 0.00 32
20260501143010 20 290 0.0 3.2 0.00 0.00 0.00 33
20260501142511 20 157 3.2 6.4 0.00 0.00 0.00 32
20260501142014 20 278 3.2 6.4 0.00 0.00 0.00 33
20260501141510 18 126 0.0 3.2 0.00 0.00 0.00 33
20260501141010 18 162 6.4 11.3 0.00 0.00 0.00 33
20260501140510 18 205 0.0 3.2 0.00 0.00 0.00 33
20260501140010 18 178 3.2 6.4 0.00 0.00 0.00 33
20260501135510 20 206 6.4 14.5 0.00 0.00 0.00 33
20260501135011 18 165 0.0 0.0 0.00 0.00 0.00 34
20260501134510 17 160 3.2 6.4 0.00 0.00 0.00 34
20260501134010 17 162 11.3 14.5 0.00 0.00 0.00 34
20260501133510 17 129 11.3 14.5 0.00 0.00 0.00 34
20260501133010 17 124 11.3 14.5 0.00 0.00 0.00 34
20260501132509 17 89 3.2 6.4 0.00 0.00 0.00 33